Погода в Джингирике

Россия / Карачаево-Черкесская Республика     43°43′45″N   41°53′19″E
темп.,
°C
ветер,
м/с
пор.,
м/с
влажн.,
%
обл.,
%
осадки,
мм/ч
давл.,
гПа
погр.,
м
12 апреля, пн
пн1200:00+3с1196100 0.0 101750
03:00+2сз119997 0.0 101823
06:00+3сз1199100 0.0 1019147
09:00+3ссз1298100 0.3 1020552
12:00+3сз2297100 0.4 1020551
15:00+3сз1197100 0.5 1022599
18:00+3зсз1198100 0.4 1023484
21:00+3сз1199100 0.6 1023459
13 апреля, вт
вт1300:00+2ююв1199100 1.8 1023297
03:00+2зюз1198100 2.9 1022108
06:00+2в0194100 0.1 102283
09:00+6зсз118197 0.4 1021597
12:00+6ссз228098 0.1 1020639
15:00+6с2286100 0.6 1020613
18:00+5ссв128895 0.3 1020302
21:00+4ссз1297100 0.3 1020124
14 апреля, ср
ср1400:00+4ссз1199100 0.5 1017175
03:00+4з1199100 1.9 1017294
06:00+4зюз1191100 0.4 1017224
09:00+5ссз1186100 0.4 1017421
12:00+8зсз2370100 0.1 10151026
15:00+7сз2381100 0.6 1016830
18:00+5сз2295100 0.7 1018291
21:00+4ссв019594 0.8 101894
15 апреля, чт
чт1500:00+2ююв229020 0.0 101828
03:000юв33784 0.0 101942
06:000юв33710 0.0 101954
09:00+10в01350 0.0 1014468
12:00+14сз22260 0.0 10121531
15:00+15ссз343545 0.0 10112047
18:00+10сз1268100 0.6 1014198
21:00+6юв228388 0.6 101428
16 апреля, пт
пт1600:00+4юв228230 0.0 101539
03:00+3ю118497 0.1 101711
06:00+4в0085100 0.1 101616
09:00+7сз2179100 0.1 1016621
12:00+8с227696 0.4 1015743
15:00+9с117262 0.8 1015776
18:00+8с227867 0.4 1015296
21:00+4зюз119612 0.5 101711